| time (UTC) | temp F | wind direction | speed MPH | gust MPH | rain 1hr in | rain 24hr in | rain mn in | humidity % | barometer mb |
| 20260906191314 | 69 | 335 | 8.0 | 0.0 | 0.07 | 0.14 | 0.14 | 83 | 965.1 |
| 20260906190815 | 69 | 306 | 7.0 | 0.0 | 0.07 | 0.13 | 0.13 | 82 | 965.1 |
| 20260906190243 | 68 | 296 | 9.0 | 0.0 | 0.06 | 0.12 | 0.12 | 80 | 965.5 |
| 20260906185813 | 68 | 322 | 9.0 | 0.0 | 0.05 | 0.11 | 0.11 | 80 | 965.5 |
| 20260906185239 | 68 | 309 | 6.0 | 0.0 | 0.06 | 0.11 | 0.11 | 82 | 965.5 |
| 20260906184812 | 68 | 340 | 6.0 | 0.0 | 0.05 | 0.10 | 0.10 | 82 | 965.5 |
| 20260906184243 | 68 | 307 | 6.0 | 0.0 | 0.06 | 0.10 | 0.10 | 80 | 965.1 |
| 20260906183740 | 68 | 356 | 4.0 | 0.0 | 0.05 | 0.09 | 0.09 | 82 | 965.1 |
| 20260906183240 | 67 | 21 | 6.0 | 0.0 | 0.05 | 0.08 | 0.08 | 83 | 965.1 |
| 20260906182743 | 67 | 26 | 6.0 | 0.0 | 0.04 | 0.07 | 0.07 | 85 | 965.1 |
| 20260906182242 | 66 | 20 | 6.0 | 0.0 | 0.04 | 0.07 | 0.07 | 83 | 965.1 |
| 20260906181741 | 66 | 21 | 6.0 | 0.0 | 0.04 | 0.07 | 0.07 | 82 | 965.1 |
| 20260906181313 | 67 | 21 | 8.0 | 0.0 | 0.04 | 0.07 | 0.07 | 80 | 965.1 |
| 20260906180811 | 67 | 344 | 6.0 | 0.0 | 0.03 | 0.06 | 0.06 | 79 | 965.1 |
| 20260906180240 | 68 | 5 | 5.0 | 0.0 | 0.03 | 0.06 | 0.06 | 79 | 965.1 |
| 20260906175813 | 68 | 327 | 4.0 | 0.0 | 0.03 | 0.06 | 0.06 | 81 | 965.1 |
| 20260906175237 | 69 | 332 | 4.0 | 0.0 | 0.02 | 0.05 | 0.05 | 80 | 964.8 |
| 20260906174812 | 69 | 320 | 6.0 | 0.0 | 0.02 | 0.05 | 0.05 | 78 | 964.8 |
| 20260906174241 | 69 | 348 | 6.0 | 0.0 | 0.01 | 0.04 | 0.04 | 75 | 964.8 |
| 20260906173742 | 70 | 284 | 7.0 | 0.0 | 0.01 | 0.04 | 0.04 | 74 | 964.8 |
| 20260906173241 | 71 | 328 | 4.0 | 0.0 | 0.00 | 0.03 | 0.03 | 73 | 964.8 |
| 20260906172815 | 71 | 354 | 3.0 | 0.0 | 0.00 | 0.03 | 0.03 | 71 | 964.4 |
| 20260906172440 | 71 | 0 | 3.0 | 0.0 | 0.00 | 0.03 | 0.03 | 70 | 964.4 |
| 20260906170758 | 71 | 32 | 3.0 | 0.0 | 0.01 | 0.03 | 0.03 | 66 | 963.8 |
| 20260906170258 | 71 | 349 | 4.0 | 0.0 | 0.01 | 0.03 | 0.03 | 65 | 963.8 |
| 20260906165756 | 71 | 354 | 4.0 | 0.0 | 0.01 | 0.03 | 0.03 | 67 | 963.8 |
| 20260906165258 | 71 | 320 | 4.0 | 0.0 | 0.01 | 0.03 | 0.03 | 67 | 963.8 |
| 20260906164801 | 72 | 311 | 5.0 | 0.0 | 0.01 | 0.03 | 0.03 | 68 | 963.8 |
| 20260906164436 | 71 | 0 | 5.0 | 0.0 | 0.01 | 0.03 | 0.03 | 66 | 963.4 |
| 20260906163318 | 69 | 5 | 3.0 | 0.0 | 0.01 | 0.03 | 0.03 | 67 | 963.4 |
| 20260906163052 | 69 | 335 | 5.0 | 0.0 | 0.01 | 0.03 | 0.03 | 70 | 963.4 |
| 20260906162240 | 69 | 313 | 6.0 | 0.0 | 0.01 | 0.03 | 0.03 | 69 | 963.4 |
| 20260906160812 | 70 | 325 | 5.0 | 0.0 | 0.00 | 0.02 | 0.02 | 63 | 963.4 |
| 20260906155241 | 70 | 318 | 6.0 | 0.0 | 0.00 | 0.02 | 0.02 | 59 | 963.8 |
| 20260906154742 | 69 | 323 | 6.0 | 0.0 | 0.01 | 0.02 | 0.02 | 58 | 963.4 |
| 20260906154241 | 70 | 321 | 6.0 | 0.0 | 0.01 | 0.02 | 0.02 | 59 | 963.4 |
| 20260906153800 | 69 | 324 | 7.0 | 0.0 | 0.01 | 0.02 | 0.02 | 59 | 963.4 |
| 20260906153320 | 70 | 335 | 8.0 | 0.0 | 0.01 | 0.02 | 0.02 | 59 | 963.4 |
| 20260906152742 | 70 | 326 | 8.0 | 0.0 | 0.01 | 0.02 | 0.02 | 63 | 963.8 |
| 20260906152251 | 70 | 318 | 9.0 | 0.0 | 0.01 | 0.02 | 0.02 | 65 | 963.4 |
| 20260906151738 | 70 | 314 | 8.0 | 0.0 | 0.01 | 0.02 | 0.02 | 69 | 963.4 |
| 20260906151241 | 70 | 335 | 5.0 | 0.0 | 0.01 | 0.02 | 0.02 | 69 | 963.4 |
| 20260906150757 | 70 | 313 | 4.0 | 0.0 | 0.01 | 0.02 | 0.02 | 70 | 963.8 |
| 20260906150236 | 70 | 348 | 4.0 | 0.0 | 0.01 | 0.02 | 0.02 | 72 | 963.4 |
| 20260906145838 | 69 | 268 | 4.0 | 0.0 | 0.01 | 0.02 | 0.02 | 75 | 963.4 |
| 20260906145250 | 69 | 316 | 4.0 | 0.0 | 0.01 | 0.02 | 0.02 | 79 | 963.4 |
| 20260906144820 | 69 | 356 | 4.0 | 0.0 | 0.00 | 0.01 | 0.01 | 77 | 963.4 |
| 20260906144241 | 69 | 307 | 4.0 | 0.0 | 0.00 | 0.01 | 0.01 | 76 | 963.4 |
| 20260906143816 | 69 | 321 | 2.0 | 0.0 | 0.00 | 0.01 | 0.01 | 77 | 963.1 |
| 20260906143337 | 69 | 308 | 3.0 | 0.0 | 0.00 | 0.01 | 0.01 | 78 | 963.1 |
| 20260906142325 | 68 | 320 | 1.0 | 0.0 | 0.00 | 0.01 | 0.01 | 78 | 963.1 |
| 20260906141739 | 69 | 332 | 0.0 | 0.0 | 0.00 | 0.01 | 0.01 | 75 | 962.8 |
| 20260906141243 | 69 | 323 | 2.0 | 0.0 | 0.00 | 0.01 | 0.01 | 75 | 962.8 |
| 20260906140741 | 69 | 12 | 3.0 | 0.0 | 0.00 | 0.01 | 0.01 | 74 | 962.8 |
| 20260906140314 | 70 | 335 | 3.0 | 0.0 | 0.00 | 0.01 | 0.01 | 71 | 962.4 |
| 20260906135745 | 70 | 320 | 3.0 | 0.0 | 0.00 | 0.01 | 0.01 | 71 | 962.4 |
| 20260906135236 | 70 | 307 | 2.0 | 0.0 | 0.00 | 0.01 | 0.01 | 77 | 962.4 |
| 20260906134740 | 70 | 335 | 2.0 | 0.0 | 0.00 | 0.01 | 0.01 | 78 | 962.1 |
| 20260906134246 | 70 | 326 | 4.0 | 0.0 | 0.00 | 0.01 | 0.01 | 79 | 962.1 |
| 20260906133741 | 71 | 295 | 4.0 | 0.0 | 0.00 | 0.01 | 0.01 | 79 | 962.1 |
| 20260906133241 | 71 | 314 | 2.0 | 0.0 | 0.01 | 0.01 | 0.01 | 80 | 961.7 |
| 20260906132740 | 71 | 330 | 2.0 | 0.0 | 0.01 | 0.01 | 0.01 | 78 | 961.7 |
| 20260906132458 | 71 | 281 | 2.0 | 0.0 | 0.01 | 0.01 | 0.01 | 75 | 961.7 |
| 20260906132047 | 71 | 257 | 2.0 | 0.0 | 0.01 | 0.01 | 0.01 | 75 | 961.4 |
| 20260906131233 | 71 | 284 | 2.0 | 0.0 | 0.01 | 0.01 | 0.01 | 76 | 961.4 |
| 20260906130741 | 71 | 263 | 2.0 | 0.0 | 0.01 | 0.01 | 0.01 | 73 | 961.4 |
| 20260906130313 | 71 | 267 | 2.0 | 0.0 | 0.01 | 0.01 | 0.01 | 73 | 961.4 |
| 20260906125750 | 71 | 273 | 2.0 | 0.0 | 0.01 | 0.01 | 0.01 | 76 | 961.4 |
| 20260906125239 | 71 | 289 | 2.0 | 0.0 | 0.01 | 0.01 | 0.01 | 72 | 961.4 |
| 20260906124743 | 71 | 263 | 2.0 | 0.0 | 0.01 | 0.01 | 0.01 | 73 | 961.4 |
| 20260906124240 | 71 | 305 | 3.0 | 0.0 | 0.01 | 0.01 | 0.01 | 72 | 961.4 |
| 20260906123740 | 72 | 274 | 3.0 | 0.0 | 0.01 | 0.01 | 0.01 | 72 | 961.4 |
| 20260906123240 | 72 | 263 | 3.0 | 0.0 | 0.00 | 0.00 | 0.00 | 70 | 961.4 |
| 20260906122741 | 72 | 267 | 4.0 | 0.0 | 0.00 | 0.00 | 0.00 | 70 | 961.7 |
| 20260906122240 | 72 | 247 | 3.0 | 0.0 | 0.00 | 0.00 | 0.00 | 67 | 961.7 |
| 20260906121739 | 72 | 246 | 3.0 | 0.0 | 0.00 | 0.00 | 0.00 | 66 | 961.7 |
| 20260906121239 | 72 | 275 | 4.0 | 0.0 | 0.00 | 0.00 | 0.00 | 62 | 961.7 |
| 20260906120738 | 73 | 192 | 3.0 | 0.0 | 0.00 | 0.00 | 0.00 | 60 | 961.7 |
| 20260906120239 | 73 | 267 | 3.0 | 0.0 | 0.00 | 0.00 | 0.00 | 55 | 961.7 |
| 20260906115737 | 73 | 271 | 4.0 | 0.0 | 0.00 | 0.00 | 0.00 | 56 | 962.1 |
| 20260906115238 | 73 | 244 | 4.0 | 0.0 | 0.00 | 0.00 | 0.00 | 55 | 962.1 |
| 20260906114737 | 73 | 330 | 4.0 | 0.0 | 0.00 | 0.00 | 0.00 | 55 | 962.1 |
| 20260906114239 | 73 | 252 | 3.0 | 0.0 | 0.00 | 0.00 | 0.00 | 50 | 962.1 |
| 20260906113737 | 73 | 263 | 4.0 | 0.0 | 0.00 | 0.00 | 0.00 | 52 | 962.1 |
| 20260906113243 | 72 | 224 | 2.0 | 0.0 | 0.00 | 0.00 | 0.00 | 46 | 962.1 |
| 20260906112801 | 72 | 246 | 1.0 | 0.0 | 0.00 | 0.00 | 0.00 | 51 | 962.1 |
| 20260906112306 | 73 | 219 | 0.0 | 0.0 | 0.00 | 0.00 | 0.00 | 53 | 962.1 |
| 20260906111801 | 73 | 219 | 0.0 | 0.0 | 0.00 | 0.00 | 0.00 | 53 | 962.1 |
| 20260906111301 | 74 | 218 | 0.0 | 0.0 | 0.00 | 0.00 | 0.00 | 47 | 962.1 |
| 20260906110801 | 74 | 218 | 3.0 | 0.0 | 0.00 | 0.00 | 0.00 | 45 | 962.1 |
| 20260906110300 | 75 | 183 | 3.0 | 0.0 | 0.00 | 0.00 | 0.00 | 44 | 962.1 |
| 20260906105759 | 75 | 220 | 4.0 | 0.0 | 0.00 | 0.00 | 0.00 | 40 | 962.1 |
| 20260906105301 | 75 | 178 | 4.0 | 0.0 | 0.00 | 0.00 | 0.00 | 39 | 961.7 |
| 20260906104759 | 75 | 168 | 4.0 | 0.0 | 0.00 | 0.00 | 0.00 | 39 | 961.7 |
| 20260906104400 | 75 | 110 | 3.0 | 0.0 | 0.00 | 0.00 | 0.00 | 39 | 961.7 |
| 20260906103859 | 75 | 157 | 3.0 | 0.0 | 0.00 | 0.00 | 0.00 | 39 | 961.7 |
| 20260906103537 | 75 | 152 | 3.0 | 0.0 | 0.00 | 0.00 | 0.00 | 39 | 961.7 |
| 20260906102759 | 75 | 263 | 0.0 | 0.0 | 0.00 | 0.00 | 0.00 | 37 | 961.4 |
| 20260906102259 | 75 | 308 | 0.0 | 0.0 | 0.00 | 0.00 | 0.00 | 36 | 961.4 |
| 20260906101758 | 74 | 298 | 0.0 | 0.0 | 0.00 | 0.00 | 0.00 | 35 | 961.4 |
| 20260906101303 | 74 | 323 | 0.0 | 0.0 | 0.00 | 0.00 | 0.00 | 36 | 961.4 |
| 20260906100758 | 74 | 319 | 0.0 | 0.0 | 0.00 | 0.00 | 0.00 | 36 | 961.4 |
| 20260906100257 | 74 | 279 | 0.0 | 0.0 | 0.00 | 0.00 | 0.00 | 36 | 961.4 |
| 20260906095757 | 75 | 319 | 1.0 | 0.0 | 0.00 | 0.00 | 0.00 | 37 | 961.4 |
| 20260906095257 | 75 | 331 | 1.0 | 0.0 | 0.00 | 0.00 | 0.00 | 37 | 961.4 |
| 20260906094854 | 75 | 315 | 2.0 | 0.0 | 0.00 | 0.00 | 0.00 | 37 | 961.4 |
| 20260906094554 | 75 | 353 | 2.0 | 0.0 | 0.00 | 0.00 | 0.00 | 38 | 961.4 |
| 20260906093755 | 75 | 3 | 1.0 | 0.0 | 0.00 | 0.00 | 0.00 | 39 | 961.4 |
| 20260906093253 | 75 | 325 | 0.0 | 0.0 | 0.00 | 0.00 | 0.00 | 39 | 961.7 |
| 20260906092552 | 75 | 327 | 0.0 | 0.0 | 0.00 | 0.00 | 0.00 | 39 | 961.7 |
| 20260906092052 | 74 | 343 | 0.0 | 0.0 | 0.00 | 0.00 | 0.00 | 40 | 961.7 |
| 20260906081747 | 74 | 329 | 0.0 | 0.0 | 0.00 | 0.00 | 0.00 | 42 | 962.1 |
| 20260906080549 | 74 | 239 | 0.0 | 0.0 | 0.00 | 0.00 | 0.00 | 42 | 962.1 |
| 20260906075747 | 74 | 299 | 3.0 | 0.0 | 0.00 | 0.00 | 0.00 | 42 | 962.1 |
| 20260906075247 | 74 | 232 | 3.0 | 0.0 | 0.00 | 0.00 | 0.00 | 42 | 961.7 |
| 20260906074747 | 74 | 300 | 3.0 | 0.0 | 0.00 | 0.00 | 0.00 | 41 | 961.7 |
| 20260906074246 | 74 | 341 | 1.0 | 0.0 | 0.00 | 0.00 | 0.00 | 41 | 961.7 |
| 20260906073848 | 74 | 168 | 0.0 | 0.0 | 0.00 | 0.00 | 0.00 | 41 | 962.1 |
| 20260906072245 | 74 | 304 | 0.0 | 0.0 | 0.00 | 0.00 | 0.00 | 39 | 961.7 |
| 20260906055241 | 78 | 253 | 3.0 | 0.0 | 0.00 | 0.00 | 0.00 | 36 | 961.7 |
| 20260906054741 | 78 | 277 | 3.0 | 0.0 | 0.00 | 0.00 | 0.00 | 37 | 961.7 |
| 20260906054241 | 78 | 257 | 2.0 | 0.0 | 0.00 | 0.00 | 0.00 | 37 | 961.7 |
| 20260906053739 | 77 | 238 | 3.0 | 0.0 | 0.00 | 0.00 | 0.00 | 38 | 961.7 |
| 20260906053240 | 76 | 273 | 3.0 | 0.0 | 0.00 | 0.00 | 0.00 | 39 | 961.7 |
| 20260906052739 | 76 | 285 | 3.0 | 0.0 | 0.00 | 0.00 | 0.00 | 39 | 961.7 |
| 20260906052240 | 76 | 319 | 3.0 | 0.0 | 0.00 | 0.00 | 0.00 | 38 | 961.7 |
| 20260906051740 | 77 | 304 | 3.0 | 0.0 | 0.00 | 0.00 | 0.00 | 38 | 961.7 |
| 20260906050138 | 78 | 305 | 1.0 | 0.0 | 0.00 | 0.00 | 0.00 | 38 | 961.7 |
| 20260906040233 | 80 | 275 | 2.0 | 0.0 | 0.00 | 0.00 | 0.00 | 36 | 961.4 |
| 20260906035834 | 81 | 177 | 2.0 | 0.0 | 0.00 | 0.00 | 0.00 | 35 | 961.4 |
| 20260906015628 | 87 | 333 | 12.0 | 0.0 | 0.00 | 0.00 | 0.00 | 31 | 960.4 |
| 20260906015029 | 88 | 99 | 12.0 | 0.0 | 0.00 | 0.00 | 0.00 | 31 | 960.4 |
| 20260906014628 | 88 | 104 | 9.0 | 0.0 | 0.00 | 0.00 | 0.00 | 30 | 960.4 |
| 20260906013927 | 88 | 168 | 9.0 | 0.0 | 0.00 | 0.00 | 0.00 | 30 | 960.4 |
| 20260906013428 | 88 | 233 | 10.0 | 0.0 | 0.00 | 0.00 | 0.00 | 30 | 960.4 |
| 20260906012326 | 89 | 55 | 10.0 | 0.0 | 0.00 | 0.00 | 0.00 | 30 | 960.4 |
| 20260906011826 | 89 | 124 | 11.0 | 0.0 | 0.00 | 0.00 | 0.00 | 30 | 960.4 |
| 20260906011326 | 89 | 137 | 11.0 | 0.0 | 0.00 | 0.00 | 0.00 | 29 | 960.4 |
| 20260906010841 | 89 | 196 | 11.0 | 0.0 | 0.00 | 0.00 | 0.00 | 29 | 960.4 |
| 20260906010326 | 90 | 77 | 11.0 | 0.0 | 0.00 | 0.00 | 0.00 | 29 | 960.4 |
| 20260906010026 | 90 | 223 | 11.0 | 0.0 | 0.00 | 0.00 | 0.00 | 28 | 960.4 |
| 20260906005324 | 91 | 177 | 8.0 | 0.0 | 0.00 | 0.00 | 0.00 | 29 | 960.4 |
| 20260906004823 | 91 | 170 | 10.0 | 0.0 | 0.00 | 0.00 | 0.00 | 28 | 960.4 |
| 20260906004240 | 91 | 116 | 9.0 | 0.0 | 0.00 | 0.00 | 0.00 | 28 | 960.0 |
| 20260906003825 | 91 | 112 | 11.0 | 0.0 | 0.00 | 0.00 | 0.00 | 28 | 960.0 |
| 20260906003242 | 91 | 161 | 11.0 | 0.0 | 0.00 | 0.00 | 0.00 | 28 | 960.0 |
| 20260906002825 | 91 | 84 | 10.0 | 0.0 | 0.00 | 0.00 | 0.00 | 28 | 960.0 |
| 20260906002323 | 92 | 177 | 9.0 | 0.0 | 0.00 | 0.00 | 0.00 | 28 | 960.0 |
| 20260906001924 | 93 | 35 | 10.0 | 0.0 | 0.00 | 0.00 | 0.00 | 27 | 960.0 |
| 20260906000740 | 93 | 162 | 11.0 | 0.0 | 0.00 | 0.00 | 0.00 | 27 | 960.0 |
| 20260906000340 | 93 | 139 | 11.0 | 0.0 | 0.00 | 0.00 | 0.00 | 27 | 960.0 |
| 20260905235822 | 93 | 197 | 11.0 | 0.0 | 0.00 | 0.00 | 0.00 | 27 | 960.0 |
| 20260905235321 | 93 | 143 | 9.0 | 0.0 | 0.00 | 0.00 | 0.00 | 27 | 960.0 |
| 20260905234822 | 93 | 139 | 13.0 | 0.0 | 0.00 | 0.00 | 0.00 | 27 | 960.0 |
| 20260905234322 | 93 | 211 | 11.0 | 0.0 | 0.00 | 0.00 | 0.00 | 27 | 960.0 |
| 20260905233822 | 92 | 182 | 12.0 | 0.0 | 0.00 | 0.00 | 0.00 | 27 | 960.0 |
| 20260905233322 | 93 | 179 | 12.0 | 0.0 | 0.00 | 0.00 | 0.00 | 27 | 960.0 |
| 20260905232741 | 93 | 168 | 10.0 | 0.0 | 0.00 | 0.00 | 0.00 | 27 | 960.0 |
| 20260905232322 | 92 | 171 | 11.0 | 0.0 | 0.00 | 0.00 | 0.00 | 27 | 960.0 |
| 20260905231821 | 93 | 195 | 10.0 | 0.0 | 0.00 | 0.00 | 0.00 | 27 | 960.0 |
| 20260905231320 | 93 | 154 | 10.0 | 0.0 | 0.00 | 0.00 | 0.00 | 27 | 960.0 |
| 20260905230742 | 94 | 162 | 13.0 | 0.0 | 0.00 | 0.00 | 0.00 | 26 | 960.0 |
| 20260905230323 | 93 | 67 | 13.0 | 0.0 | 0.00 | 0.00 | 0.00 | 26 | 960.0 |
| 20260905225742 | 94 | 133 | 8.0 | 0.0 | 0.00 | 0.00 | 0.00 | 25 | 960.0 |
| 20260905225320 | 93 | 135 | 7.0 | 0.0 | 0.00 | 0.00 | 0.00 | 25 | 960.0 |
| 20260905224826 | 92 | 39 | 12.0 | 0.0 | 0.00 | 0.00 | 0.00 | 25 | 960.4 |
| 20260905224241 | 93 | 98 | 9.0 | 0.0 | 0.00 | 0.00 | 0.00 | 25 | 960.4 |
| 20260905223821 | 95 | 135 | 12.0 | 0.0 | 0.00 | 0.00 | 0.00 | 24 | 960.4 |
| 20260905223252 | 94 | 123 | 12.0 | 0.0 | 0.00 | 0.00 | 0.00 | 24 | 960.4 |
| 20260905222832 | 93 | 343 | 9.0 | 0.0 | 0.00 | 0.00 | 0.00 | 24 | 960.4 |
| 20260905222331 | 93 | 107 | 13.0 | 0.0 | 0.00 | 0.00 | 0.00 | 24 | 960.4 |
| 20260905221824 | 95 | 190 | 9.0 | 0.0 | 0.00 | 0.00 | 0.00 | 23 | 960.4 |
| 20260905221247 | 94 | 131 | 10.0 | 0.0 | 0.00 | 0.00 | 0.00 | 24 | 960.4 |
| 20260905220829 | 94 | 185 | 11.0 | 0.0 | 0.00 | 0.00 | 0.00 | 23 | 960.4 |
| 20260905220252 | 95 | 123 | 9.0 | 0.0 | 0.00 | 0.00 | 0.00 | 23 | 960.4 |
| 20260905215831 | 96 | 206 | 8.0 | 0.0 | 0.00 | 0.00 | 0.00 | 22 | 960.7 |
| 20260905215254 | 95 | 166 | 9.0 | 0.0 | 0.00 | 0.00 | 0.00 | 23 | 960.7 |
| 20260905214751 | 93 | 200 | 9.0 | 0.0 | 0.00 | 0.00 | 0.00 | 24 | 960.7 |
| 20260905214330 | 93 | 60 | 12.0 | 0.0 | 0.00 | 0.00 | 0.00 | 24 | 960.7 |
| 20260905213830 | 94 | 165 | 12.0 | 0.0 | 0.00 | 0.00 | 0.00 | 23 | 960.7 |
| 20260905213244 | 95 | 319 | 9.0 | 0.0 | 0.00 | 0.00 | 0.00 | 24 | 960.7 |
| 20260905212748 | 92 | 310 | 9.0 | 0.0 | 0.00 | 0.00 | 0.00 | 25 | 961.1 |
| 20260905212343 | 93 | 174 | 13.0 | 0.0 | 0.00 | 0.00 | 0.00 | 24 | 961.1 |
| 20260905211829 | 94 | 202 | 13.0 | 0.0 | 0.00 | 0.00 | 0.00 | 24 | 961.1 |
| 20260905211328 | 94 | 40 | 10.0 | 0.0 | 0.00 | 0.00 | 0.00 | 24 | 961.1 |
| 20260905210829 | 95 | 146 | 14.0 | 0.0 | 0.00 | 0.00 | 0.00 | 22 | 961.1 |
| 20260905210329 | 94 | 131 | 11.0 | 0.0 | 0.00 | 0.00 | 0.00 | 24 | 961.1 |
| 20260905205753 | 95 | 105 | 12.0 | 0.0 | 0.00 | 0.00 | 0.00 | 21 | 961.1 |
| 20260905205321 | 95 | 195 | 10.0 | 0.0 | 0.00 | 0.00 | 0.00 | 21 | 961.4 |
| 20260905204826 | 94 | 141 | 11.0 | 0.0 | 0.00 | 0.00 | 0.00 | 22 | 961.4 |
| 20260905204328 | 94 | 129 | 14.0 | 0.0 | 0.00 | 0.00 | 0.00 | 22 | 961.4 |
| 20260905203816 | 95 | 138 | 14.0 | 0.0 | 0.00 | 0.00 | 0.00 | 19 | 961.4 |
| 20260905203316 | 94 | 66 | 10.0 | 0.0 | 0.00 | 0.00 | 0.00 | 18 | 961.4 |
| 20260905202815 | 94 | 39 | 10.0 | 0.0 | 0.00 | 0.00 | 0.00 | 18 | 961.4 |
| 20260905202243 | 94 | 144 | 10.0 | 0.0 | 0.00 | 0.00 | 0.00 | 20 | 961.4 |
| 20260905201815 | 94 | 107 | 11.0 | 0.0 | 0.00 | 0.00 | 0.00 | 19 | 961.4 |
| 20260905201314 | 93 | 113 | 11.0 | 0.0 | 0.00 | 0.00 | 0.00 | 20 | 961.7 |
| 20260905200740 | 93 | 125 | 15.0 | 0.0 | 0.00 | 0.00 | 0.00 | 19 | 961.7 |
| 20260905200314 | 94 | 126 | 13.0 | 0.0 | 0.00 | 0.00 | 0.00 | 16 | 961.7 |
| 20260905195743 | 94 | 137 | 9.0 | 0.0 | 0.00 | 0.00 | 0.00 | 16 | 961.7 |
| 20260905195313 | 93 | 334 | 8.0 | 0.0 | 0.00 | 0.00 | 0.00 | 15 | 961.7 |
| 20260905194813 | 92 | 193 | 7.0 | 0.0 | 0.00 | 0.00 | 0.00 | 15 | 961.7 |
| 20260905194315 | 92 | 118 | 9.0 | 0.0 | 0.00 | 0.00 | 0.00 | 16 | 962.1 |
| 20260905193814 | 92 | 149 | 9.0 | 0.0 | 0.00 | 0.00 | 0.00 | 15 | 962.1 |
| 20260905193312 | 92 | 348 | 8.0 | 0.0 | 0.00 | 0.00 | 0.00 | 15 | 962.1 |
| 20260905192814 | 92 | 141 | 9.0 | 0.0 | 0.00 | 0.00 | 0.00 | 13 | 962.1 |
| 20260905192324 | 91 | 107 | 11.0 | 0.0 | 0.00 | 0.00 | 0.00 | 14 | 962.4 |